• In Italy
  • List of Countries
  • For 7 days
  • Water Temperature
  • Satellite Maps
  • Weather Map
  • Weather Widgets
  • user-avatar
    Login

    Hourly Weather Madinat 'Isa

    Today, 18 October, Wednesday

    Time Temperature Precipitation Wind Pressure Humidity
    00:00 +30°C° 0 mm 2 mps 755 mmHg 48%
    01:00 +31°C° 0 mm 2 mps 755 mmHg 47%
    02:00 +31°C° 0 mm 3 mps 755 mmHg 47%
    03:00 +31°C° 0 mm 3 mps 755 mmHg 47%
    04:00 +31°C° 0 mm 3 mps 756 mmHg 48%
    05:00 +32°C° 0 mm 4 mps 756 mmHg 49%
    06:00 +32°C° 0 mm 4 mps 757 mmHg 49%
    07:00 +33°C° 0 mm 4 mps 757 mmHg 45%
    08:00 +34°C° 0 mm 5 mps 757 mmHg 41%
    09:00 +36°C° 0 mm 5 mps 757 mmHg 34%
    10:00 +37°C° 0 mm 5 mps 757 mmHg 33%
    11:00 +39°C° 0 mm 5 mps 757 mmHg 31%
    12:00 +38°C° 0 mm 4 mps 757 mmHg 30%
    13:00 +39°C° 0 mm 5 mps 757 mmHg 31%
    14:00 +39°C° 0 mm 5 mps 756 mmHg 32%
    15:00 +39°C° 0 mm 6 mps 756 mmHg 33%
    16:00 +38°C° 0 mm 6 mps 756 mmHg 38%
    17:00 +35°C° 0 mm 6 mps 756 mmHg 44%
    18:00 +34°C° 0 mm 6 mps 756 mmHg 49%
    19:00 +34°C° 0 mm 6 mps 757 mmHg 51%
    20:00 +33°C° 0 mm 6 mps 757 mmHg 53%
    21:00 +33°C° 0 mm 5 mps 757 mmHg 54%
    22:00 +33°C° 0 mm 5 mps 757 mmHg 55%
    23:00 +32°C° 0 mm 6 mps 757 mmHg 56%

    Tomorrow, 19 October, Thursday

    Time Temperature Precipitation Wind Pressure Humidity
    00:00 +32°C° 0 mm 6 mps 757 mmHg 57%
    01:00 +32°C° 0 mm 6 mps 757 mmHg 57%
    02:00 +32°C° 0 mm 6 mps 757 mmHg 57%
    03:00 +32°C° 0 mm 6 mps 757 mmHg 57%
    04:00 +32°C° 0 mm 6 mps 757 mmHg 57%
    05:00 +32°C° 0 mm 6 mps 758 mmHg 57%
    06:00 +32°C° 0 mm 6 mps 758 mmHg 56%
    07:00 +33°C° 0 mm 6 mps 758 mmHg 52%
    08:00 +35°C° 0 mm 6 mps 759 mmHg 47%
    09:00 +36°C° 0 mm 6 mps 759 mmHg 42%
    10:00 +38°C° 0 mm 6 mps 759 mmHg 38%
    11:00 +39°C° 0 mm 6 mps 758 mmHg 33%
    12:00 +40°C° 0 mm 6 mps 758 mmHg 29%
    13:00 +39°C° 0 mm 7 mps 758 mmHg 32%
    14:00 +38°C° 0 mm 7 mps 758 mmHg 35%
    15:00 +38°C° 0 mm 7 mps 757 mmHg 38%
    16:00 +36°C° 0 mm 7 mps 758 mmHg 43%
    17:00 +34°C° 0 mm 6 mps 758 mmHg 48%
    18:00 +33°C° 0 mm 6 mps 758 mmHg 53%
    19:00 +33°C° 0 mm 5 mps 759 mmHg 55%
    20:00 +33°C° 0 mm 5 mps 759 mmHg 57%
    21:00 +32°C° 0 mm 4 mps 759 mmHg 59%
    22:00 +32°C° 0 mm 4 mps 759 mmHg 60%
    23:00 +32°C° 0 mm 4 mps 759 mmHg 61%

    Day after tomorrow, 20 October, Friday

    Time Temperature Precipitation Wind Pressure Humidity
    00:00 +31°C° 0 mm 3 mps 758 mmHg 62%
    01:00 +30°C° 0 mm 4 mps 758 mmHg 62%
    02:00 +30°C° 0 mm 4 mps 758 mmHg 62%
    03:00 +30°C° 0 mm 4 mps 758 mmHg 62%
    04:00 +30°C° 0 mm 4 mps 758 mmHg 62%
    05:00 +30°C° 0 mm 4 mps 758 mmHg 61%
    06:00 +30°C° 0 mm 4 mps 758 mmHg 60%
    07:00 +32°C° 0 mm 4 mps 758 mmHg 56%
    08:00 +34°C° 0 mm 4 mps 759 mmHg 51%
    09:00 +35°C° 0 mm 4 mps 759 mmHg 46%
    10:00 +36°C° 0 mm 4 mps 759 mmHg 40%
    11:00 +37°C° 0 mm 4 mps 758 mmHg 34%
    12:00 +38°C° 0 mm 4 mps 758 mmHg 29%
    13:00 +39°C° 0 mm 5 mps 757 mmHg 27%
    14:00 +39°C° 0 mm 5 mps 757 mmHg 26%
    15:00 +39°C° 0 mm 6 mps 757 mmHg 25%
    16:00 +36°C° 0 mm 6 mps 757 mmHg 31%
    17:00 +35°C° 0 mm 6 mps 757 mmHg 37%
    18:00 +34°C° 0 mm 6 mps 757 mmHg 42%
    19:00 +33°C° 0 mm 6 mps 757 mmHg 44%
    20:00 +33°C° 0 mm 5 mps 758 mmHg 45%
    21:00 +33°C° 0 mm 5 mps 758 mmHg 46%
    22:00 +32°C° 0 mm 4 mps 758 mmHg 46%
    23:00 +32°C° 0 mm 4 mps 757 mmHg 46%

    21 October, Saturday

    Time Temperature Precipitation Wind Pressure Humidity
    00:00 +30°C° 0 mm 4 mps 757 mmHg 47%
    01:00 +30°C° 0 mm 3 mps 757 mmHg 46%
    02:00 +30°C° 0 mm 3 mps 756 mmHg 45%
    03:00 +29°C° 0 mm 3 mps 756 mmHg 44%
    04:00 +29°C° 0 mm 3 mps 756 mmHg 42%
    05:00 +29°C° 0 mm 3 mps 757 mmHg 40%
    06:00 +29°C° 0 mm 3 mps 757 mmHg 38%
    07:00 +32°C° 0 mm 4 mps 757 mmHg 34%
    08:00 +33°C° 0 mm 4 mps 757 mmHg 30%
    09:00 +35°C° 0 mm 4 mps 758 mmHg 26%
    10:00 +36°C° 0 mm 4 mps 757 mmHg 23%
    11:00 +37°C° 0 mm 4 mps 757 mmHg 21%
    12:00 +38°C° 0 mm 4 mps 756 mmHg 19%
    13:00 +38°C° 0 mm 4 mps 756 mmHg 19%
    14:00 +38°C° 0 mm 4 mps 756 mmHg 20%
    15:00 +38°C° 0 mm 4 mps 755 mmHg 21%
    16:00 +37°C° 0 mm 4 mps 755 mmHg 27%
    17:00 +35°C° 0 mm 3 mps 755 mmHg 33%
    18:00 +34°C° 0 mm 3 mps 755 mmHg 40%
    19:00 +33°C° 0 mm 3 mps 755 mmHg 41%
    20:00 +33°C° 0 mm 3 mps 756 mmHg 43%
    21:00 +31°C° 0 mm 2 mps 756 mmHg 44%
    22:00 +31°C° 0 mm 2 mps 756 mmHg 45%
    23:00 +30°C° 0 mm 1 mps 755 mmHg 46%

    22 October, Sunday

    Time Temperature Precipitation Wind Pressure Humidity
    00:00 +29°C° 0 mm 1 mps 755 mmHg 47%
    01:00 +29°C° 0 mm 1 mps 755 mmHg 47%
    02:00 +29°C° 0 mm 1 mps 755 mmHg 47%
    03:00 +28°C° 0 mm 2 mps 755 mmHg 47%
    04:00 +28°C° 0 mm 1 mps 755 mmHg 46%
    05:00 +28°C° 0 mm 1 mps 756 mmHg 45%
    06:00 +28°C° 0 mm 1 mps 756 mmHg 45%
    07:00 +30°C° 0 mm 1 mps 756 mmHg 40%
    08:00 +32°C° 0 mm 1 mps 757 mmHg 35%
    09:00 +33°C° 0 mm 1 mps 757 mmHg 31%
    10:00 +35°C° 0 mm 2 mps 757 mmHg 29%
    11:00 +36°C° 0 mm 2 mps 756 mmHg 26%
    12:00 +37°C° 0 mm 2 mps 756 mmHg 24%
    13:00 +37°C° 0 mm 3 mps 755 mmHg 25%
    14:00 +37°C° 0 mm 4 mps 755 mmHg 25%
    15:00 +37°C° 0 mm 4 mps 755 mmHg 26%
    16:00 +36°C° 0 mm 4 mps 755 mmHg 31%
    17:00 +34°C° 0 mm 4 mps 756 mmHg 37%
    18:00 +33°C° 0 mm 4 mps 756 mmHg 42%
    19:00 +33°C° 0 mm 4 mps 756 mmHg 46%
    20:00 +32°C° 0 mm 4 mps 757 mmHg 50%
    21:00 +32°C° 0 mm 4 mps 757 mmHg 54%
    22:00 +32°C° 0 mm 4 mps 757 mmHg 54%
    23:00 +32°C° 0 mm 4 mps 756 mmHg 53%

    23 October, Monday

    Time Temperature Precipitation Wind Pressure Humidity
    00:00 +30°C° 0 mm 4 mps 756 mmHg 53%
    01:00 +30°C° 0 mm 4 mps 756 mmHg 53%
    02:00 +30°C° 0 mm 3 mps 756 mmHg 52%
    03:00 +29°C° 0 mm 3 mps 756 mmHg 52%
    04:00 +29°C° 0 mm 3 mps 756 mmHg 52%
    05:00 +28°C° 0 mm 3 mps 757 mmHg 52%
    06:00 +28°C° 0 mm 2 mps 757 mmHg 51%
    07:00 +30°C° 0 mm 2 mps 757 mmHg 46%
    08:00 +31°C° 0 mm 2 mps 758 mmHg 40%
    09:00 +34°C° 0 mm 2 mps 758 mmHg 34%
    10:00 +35°C° 0 mm 2 mps 758 mmHg 31%
    11:00 +36°C° 0 mm 2 mps 757 mmHg 28%
    12:00 +36°C° 0 mm 2 mps 757 mmHg 25%
    13:00 +37°C° 0 mm 2 mps 757 mmHg 24%
    14:00 +37°C° 0 mm 3 mps 756 mmHg 23%
    15:00 +37°C° 0 mm 3 mps 756 mmHg 23%
    16:00 +36°C° 0 mm 3 mps 757 mmHg 27%
    17:00 +34°C° 0 mm 3 mps 757 mmHg 31%
    18:00 +33°C° 0 mm 3 mps 757 mmHg 36%
    19:00 +33°C° 0 mm 3 mps 757 mmHg 39%
    20:00 +33°C° 0 mm 3 mps 758 mmHg 43%
    21:00 +31°C° 0 mm 3 mps 758 mmHg 46%
    22:00 +31°C° 0 mm 3 mps 758 mmHg 49%
    23:00 +30°C° 0 mm 3 mps 757 mmHg 51%
    Show more